Regional Weather Roundup
Issued by NWS

Home | Current Version | Previous Version | Graphics & Text | Print | Product List | Glossary On
Versions: 1 2 3 4 5 6 7 8 9 10 11 12 13 14 15 16 17 18 19 20 21 22 23 24 25 26 27 28 29 30 31 32 33 34 35 36 37 38 39 40 41 42 43 44 45 46 47 48 49 50
000
ASUS43 KLMK 190902
RWRKY
KENTUCKY REGIONAL WEATHER ROUNDUP
NATIONAL WEATHER SERVICE LOUISVILLE KY
500 AM EDT THU APR 19 2018

NOTE "FAIR" INDICATES FEW OR NO CLOUDS BELOW 12,000 FEET
WITH NO SIGNIFICANT WEATHER AND/OR OBSTRUCTIONS TO VISIBILITY.

KYZ001>023-026-027-061>063-070>075-191000-
WESTERN AND SOUTH CENTRAL KENTUCKY

CITY           SKY/WX    TMP DP  RH WIND       PRES   REMARKS
PADUCAH        CLOUDY    43  26  51 NW12G20   30.13R
HENDERSON      CLOUDY    40  25  55 NW18G25   30.11R WCI  31
OWENSBORO      CLOUDY    41  26  55 NW23      30.09R
HOPKINSVILLE   CLOUDY    44  28  53 NW16G26   30.08R
BOWLING GREEN  CLOUDY    45  32  60 NW9G18    30.06R
GLASGOW        NOT AVBL
$$

KYZ024-025-028>034-038-045-046-053-191000-
NORTH CENTRAL KENTUCKY

CITY           SKY/WX    TMP DP  RH WIND       PRES   REMARKS
LOUISVILLE/SDF MOCLDY    41  26  55 NW22G33   30.03R
LOUISVILLE/LOU MOCLDY    40  27  59 NW15G25   30.02R WCI  32
FORT KNOX      CLOUDY    40  26  58 NW9G17    30.03R WCI  34
$$

KYZ035>037-039>044-047>052-055>060-089>105-191000-
NORTHEAST KENTUCKY

CITY           SKY/WX    TMP DP  RH WIND       PRES   REMARKS
LEXINGTON      CLOUDY    41  29  62 W20G29    29.97R
COVINGTON      CLOUDY    39  28  64 W16G23    29.93R WCI  30
FRANKFORT      CLOUDY    41  26  55 NW13G24   29.97R
$$

KYZ054-064>069-076>088-106>120-191000-
SOUTHEAST KENTUCKY

CITY           SKY/WX    TMP DP  RH WIND       PRES   REMARKS
JACKSON        CLOUDY    46  35  65 W12G22    29.90R
LONDON         CLOUDY    46 N/A N/A W12G23    29.94R
SOMERSET       NOT AVBL
MIDDLESBORO    CLOUDY    49  40  69 NW13G23   29.94R
MONTICELLO     CLOUDY    46  37  71 NW12G18   30.00R
$$





USA.gov is the U.S. government's official web portal to all federal, state and local government web resources and services.